Location: Terra Linda
(38.0041°N, 122.5497°W)
Time: 09:42:38
(UTC+00:00)

Daily predictions for brighter satellites

Satellite Brightness Start Highest point End
(mag) Time Altitude Azimuth Time Altitude Azimuth Time Altitude Azimuth
NOSS 3-1 (C) 4.0 12:08:55 76° S 12:08:55 76° S 12:17:05 10° SSE
Cosmos 1943 Rocket 3.4 12:23:26 13° N 12:27:59 38° ENE 12:33:05 10° SE
Cosmos 1339 Rocket 4.3 12:33:13 77° SSW 12:33:43 88° W 12:39:50 10° N
SL-16 R/B 3.6 12:44:31 25° NNW 12:44:31 25° NNW 12:47:16 10° N
STARLINK-1123 4.4 12:46:23 49° ESE 12:46:23 49° ESE 12:49:51 10° ENE
Cosmos 2221 2.9 12:47:10 50° SE 12:47:58 61° E 12:52:12 10° NNE
STARLINK-1097 4.1 12:50:59 56° ESE 12:50:59 56° ESE 12:54:41 10° NE
Lacrosse 5 2.7 12:52:11 30° NNW 12:54:15 48° NE 12:59:09 10° ESE
STARLINK-1099 3.8 12:55:32 64° ESE 12:55:32 64° ESE 12:59:27 10° NE
USA 229 DEB 4.3 12:56:55 39° SW 12:56:55 39° SW 13:03:15 10° S
Cosmos 1484 Rocket 3.3 12:52:26 10° NNE 12:56:22 59° E 12:58:45 22° S
USA 229 4.3 12:56:57 40° SW 12:56:57 40° SW 13:03:21 10° S
Cosmos 2369 Rocket 2.9 12:52:04 10° NNW 12:57:41 54° ENE 13:03:15 10° SE
Cosmos 1603 3.6 12:55:29 31° SSW 12:58:23 89° ESE 13:04:06 10° NNE
STARLINK-1104 3.6 13:00:06 72° SE 13:00:08 72° SE 13:04:12 10° NE
Cosmos 1943 3.3 12:58:05 13° SSW 13:03:02 74° ESE 13:08:40 10° NNE
NOSS 3-1 (A) 4.2 12:59:22 30° NW 13:03:34 58° WSW 13:12:07 10° SSE
Aureole 2 Rocket 4.4 13:01:48 16° NNE 13:03:36 26° ENE 13:06:20 10° SE
STARLINK-1144 3.5 13:04:43 76° S 13:04:56 80° SE 13:09:01 10° NE
Aureole 1 Rocket 4.4 12:58:17 13° SSW 13:05:02 78° WNW 13:13:35 10° NNE
USA 267 3.6 13:00:36 10° SSE 13:06:39 40° SW 13:07:40 38° WSW
CZ-2C R/B 3.2 13:03:29 10° N 13:07:07 35° NW 13:07:07 35° NW
STARLINK-1103 3.4 13:09:16 72° SW 13:09:40 87° SE 13:13:46 10° NE
STARLINK-1128 3.4 13:10:48 73° WSW 13:11:10 87° NW 13:15:12 10° NE
ALOS 2.7 13:07:17 10° NNE 13:11:55 61° E 13:16:31 10° S
STARLINK-1101 3.4 13:13:52 64° WSW 13:14:28 85° NW 13:18:33 10° NE
PSLV R/B 4.1 13:11:15 10° NNE 13:14:58 63° ESE 13:18:45 10° S
DELTA 2 R/B (1) 4.0 13:13:01 29° SW 13:15:39 55° SSE 13:21:04 10° E
STARLINK-1113 3.4 13:15:08 64° WSW 13:15:41 80° NW 13:19:43 10° NE
STARLINK-1102 3.4 13:18:28 56° WSW 13:19:15 77° NW 13:23:20 10° NE
STARLINK-1119 3.4 13:19:34 56° WSW 13:20:18 73° NW 13:24:20 10° NE
Meteor 2-3 Rocket 3.8 13:17:53 10° NNW 13:23:32 59° W 13:29:12 10° S
CZ-4B R/B 3.5 13:20:34 10° N 13:22:57 33° NNW 13:22:57 33° NNW
STARLINK-1111 3.5 13:23:05 48° WSW 13:24:04 70° NW 13:28:08 10° NE
Meteor 1-31 Rocket 4.3 13:21:06 10° N 13:22:45 22° NNW 13:22:45 22° NNW
STARLINK-1114 3.5 13:23:57 49° W 13:24:51 67° NW 13:28:53 10° NE
STARLINK-1073 3.6 13:27:42 42° WSW 13:28:52 63° NW 13:32:56 10° NE
Shenzhou-11 Module 2.3 13:29:37 43° N 13:29:37 43° N 13:31:51 10° ENE
STARLINK-1130 (DARKSAT) 3.6 13:28:20 42° W 13:29:27 61° NW 13:33:27 10° NE
Cosmos 1802 Rocket 4.5 13:24:19 10° N 13:30:43 65° E 13:37:04 10° SSE
STARLINK-1121 3.6 13:32:19 37° W 13:33:41 58° NW 13:37:43 10° NE
SKYMED 2 3.5 13:29:31 10° SSE 13:33:52 85° WSW 13:38:13 10° NNW
STARLINK-1084 3.7 13:32:46 37° W 13:34:03 56° NW 13:38:02 10° NE
Cosmos 1805 Rocket 3.9 13:31:33 10° N 13:35:52 66° E 13:40:10 10° SSE
Cosmos 1954 Rocket 4.2 13:30:37 10° S 13:35:55 77° ESE 13:41:15 10° NNE
BREEZE-M DEB (TANK) 3.3 13:34:11 18° SW 13:36:43 69° SE 13:41:47 10° ENE
Cosmos 407 Rocket 3.7 13:32:13 11° SW 13:37:05 49° WNW 13:42:13 10° N
Sich 1 4.1 13:33:09 10° N 13:37:18 47° E 13:41:28 10° SSE
Cosmos 1140 Rocket 3.4 13:32:07 10° SSW 13:37:19 70° WNW 13:42:35 10° NNE
GEOS 3 Rocket 4.2 13:32:41 10° NNE 13:37:33 38° NW 13:40:11 23° W
STARLINK-1070 4.4 13:38:37 21° NNW 13:38:37 21° NNW 13:40:37 10° NNE
STARLINK-1106 3.8 13:37:01 32° W 13:38:35 52° NW 13:42:35 10° NE
STARLINK-1066 4.4 13:39:26 21° NNW 13:39:26 21° NNW 13:41:25 10° NNE
STARLINK-1081 4.4 13:39:38 21° NNW 13:39:38 21° NNW 13:41:38 10° NNE
STARLINK-1069 4.4 13:40:04 20° NNW 13:40:04 20° NNW 13:42:05 10° NNE
STARLINK-1085 4.4 13:40:17 20° NNW 13:40:17 20° NNW 13:42:18 10° NNE
STARLINK-1086 4.4 13:40:30 20° NNW 13:40:30 20° NNW 13:42:31 10° NNE
STARLINK-1095 4.4 13:40:44 20° NNW 13:40:44 20° NNW 13:42:45 10° NNE
STARLINK-1077 4.4 13:40:56 20° NNW 13:40:56 20° NNW 13:42:58 10° NNE
STARLINK-1075 4.4 13:41:09 20° NNW 13:41:09 20° NNW 13:43:11 10° NNE
STARLINK-1093 4.4 13:41:22 20° NNW 13:41:22 20° NNW 13:43:24 10° NNE
STARLINK-1074 4.4 13:41:36 20° NNW 13:41:36 20° NNW 13:43:38 10° NNE
Cosmos 2084 3.5 13:37:46 16° SW 13:41:21 69° NW 13:45:51 10° NNE
STARLINK-1087 4.4 13:41:49 20° NNW 13:41:49 20° NNW 13:43:51 10° NNE
STARLINK-1088 4.4 13:42:00 20° NNW 13:42:00 20° NNW 13:44:02 10° NNE
STARLINK-1115 4.4 13:42:14 20° NNW 13:42:14 20° NNW 13:44:18 10° NNE
STARLINK-1076 4.4 13:42:27 20° NNW 13:42:27 20° NNW 13:44:31 10° NNE
STARLINK-1092 4.4 13:42:40 20° NNW 13:42:40 20° NNW 13:44:45 10° NNE
STARLINK-1080 4.4 13:42:52 20° NNW 13:42:52 20° NNW 13:44:57 10° NNE
Cosmos 1400 Rocket 3.6 13:38:50 10° S 13:42:43 54° E 13:46:41 10° NNE
ADEOS Rocket 4.1 13:36:53 10° SE 13:42:46 50° ENE 13:49:18 10° N
STARLINK-1090 4.4 13:43:04 20° NNW 13:43:04 20° NNW 13:45:09 10° NNE
STARLINK-1089 4.4 13:43:20 20° NNW 13:43:20 20° NNW 13:45:25 10° NNE
Cosmos 1500 Rocket 3.9 13:39:01 10° NNW 13:43:11 41° W 13:47:18 10° SSW
Cosmos 1869 3.6 13:39:30 10° SSW 13:43:18 43° W 13:47:06 10° N
STARLINK-1107 4.4 13:43:31 19° NNW 13:43:31 19° NNW 13:45:36 10° NNE
STARLINK-1112 3.9 13:41:45 28° W 13:43:32 48° NW 13:47:30 10° NE
STARLINK-1109 4.4 13:43:45 19° NNW 13:43:45 19° NNW 13:45:50 10° NNE
STARLINK-1091 4.4 13:43:57 19° NNW 13:43:57 19° NNW 13:46:03 10° NNE
STARLINK-1072 4.4 13:44:11 19° NNW 13:44:11 19° NNW 13:46:18 10° NNE
STARLINK-1096 4.4 13:44:23 19° NNW 13:44:23 19° NNW 13:46:29 10° NNE
H-2A R/B 3.6 13:40:47 10° NNW 13:44:28 26° WNW 13:45:47 23° W
STARLINK-1079 4.4 13:44:37 19° NNW 13:44:37 19° NNW 13:46:44 10° NNE
STARLINK-1116 4.5 13:44:50 19° NNW 13:44:50 19° NNW 13:46:56 10° NNE
STARLINK-1094 4.5 13:45:15 19° NNW 13:45:15 19° NNW 13:47:22 10° NNE
STARLINK-1117 4.5 13:45:28 19° NNW 13:45:28 19° NNW 13:47:36 10° NNE
STARLINK-1078 4.5 13:45:42 19° NNW 13:45:42 19° NNW 13:47:50 10° NNE
STARLINK-1108 4.5 13:45:55 19° NNW 13:45:55 19° NNW 13:48:03 10° NNE
STARLINK-1071 4.5 13:46:08 19° NNW 13:46:08 19° NNW 13:48:15 10° NNE
STARLINK-1110 4.5 13:46:22 19° NNW 13:46:22 19° NNW 13:48:31 10° NNE
STARLINK-1122 4.5 13:46:46 18° NNW 13:46:46 18° NNW 13:48:56 10° NNE
STARLINK-1126 4.5 13:46:59 18° NNW 13:47:00 18° NNW 13:49:10 10° NNE
STARLINK-1082 4.5 13:47:13 18° NNW 13:47:14 18° NNW 13:49:24 10° NNE
STARLINK-1100 4.5 13:47:25 18° NNW 13:47:28 18° NNW 13:49:36 10° NNE
STARLINK-1083 4.5 13:47:39 18° NNW 13:47:41 18° NNW 13:49:50 10° NNE
STARLINK-1125 4.5 13:47:52 18° NNW 13:47:54 18° NNW 13:50:03 10° NNE
PAYLOAD B 4.2 13:45:01 10° NNE 13:50:37 90° NNW 13:56:10 10° SSW
Cosmos 1743 Rocket 4.4 13:51:47 10° NNW 13:55:26 27° W 13:59:04 10° SSW
Okean O Rocket 1.8 13:51:08 10° NNE 13:55:30 77° ESE 13:59:50 10° S
Cosmos 2016 Rocket 4.1 13:49:17 10° N 13:55:35 85° E 14:01:55 10° S
METEOR-M 4.2 13:50:24 10° N 13:55:35 54° WNW 14:00:46 10° SSW
Cosmos 1151 Rocket 4.3 13:56:14 10° SSE 14:00:19 45° E 14:04:28 10° NNE
Cosmos 1633 2.9 14:02:07 10° NNW 14:05:35 42° W 14:09:01 10° SSW
Cosmos 1328 Rocket 4.4 14:01:47 10° S 14:06:08 56° E 14:10:29 10° NNE
H-2A R/B 3.6 14:03:56 10° NNE 14:07:36 53° E 14:11:13 10° S
Cosmos 1943 Rocket 3.1 14:07:01 10° NW 14:11:28 26° WSW 14:15:56 10° SSW
ISS -1.3 14:10:14 10° S 14:12:59 24° SE 14:15:45 10° ENE
USA 116 3.5 14:11:50 10° S 14:14:56 43° W 14:17:55 10° NNW
Cosmos 921 Rocket 3.7 14:14:20 10° NW 14:18:19 34° W 14:22:12 10° SSW
Cosmos 676 Rocket 4.5 14:14:08 10° SW 14:19:06 41° WNW 14:24:09 10° N
Helios 1A Rocket 2.9 14:16:29 10° N 14:20:38 82° WNW 14:24:44 10° SSW
COSMO-SKYMED 1 3.7 14:18:34 10° SSW 14:22:03 23° W 14:25:32 10° NW
Cosmos 2173 Rocket 4.5 14:18:18 10° NNW 14:23:58 37° W 14:29:33 10° SSW
Cosmos 1238 Rocket 3.8 14:18:23 10° NNW 14:24:01 48° W 14:28:44 10° SSW
Cosmos 1862 3.5 14:20:46 10° NNW 14:24:35 48° W 14:28:24 10° SSW
Cosmos 1515 Rocket 4.5 14:21:14 10° S 14:25:35 55° E 14:29:56 10° NNE
Cosmos 1633 Rocket 3.0 14:25:43 10° N 14:30:06 74° W 14:34:27 10° S
